Tracking 21076 objects as of 10-Aug-2020
HD Live streaming from Space Station
objects crossing your sky now
Track the most recent launched group of Starlink satellites

COSMOS 2251 DEB

Track COSMOS 2251 DEB now!
10-day predictions


NORAD ID: 34292
Int'l Code: 1993-036MN
Perigee: 597.8 km
Apogee: 688.2 km
Inclination: 74.1 °
Period: 97.4 minutes
Semi major axis: 7013 km
RCS: 0.0294 m2 (small)
Launch date: June 16, 1993
Source: Commonwealth of Independent States (former USSR) (CIS)
Launch site: PLESETSK MISSILE AND SPACE COMPLEX (PKMTR)

Note: This is SATELLITE DEBRIS
aabbcc
Your satellite tracking list
Your tracking list is empty




NASA's NSSDC Master Catalog

Two Line Element Set (TLE):
1 34292U 93036MN  20222.78705271 +.00000906 +00000-0 +12631-3 0  9997
2 34292 074.0589 213.9639 0064452 056.3464 304.3836 14.77939180614059
Source of the keplerian elements: AFSPC